Time,TemperatureF,DewpointF,PressureIn,WindDirection,WindDirectionDegrees,WindSpeedMPH,WindSpeedGustMPH,Humidity,HourlyPrecipIn,Conditions,Clouds,dailyrainin,SoftwareType,DateUTC
2013-03-14 00:05:00,53.1,29.9,30.27,East,93,0.0,0.0,41,0.00,,,0.00,Weather View 32 v70,2013-03-14 06:05:00,
2013-03-14 00:10:00,52.9,29.8,30.27,East,93,0.0,0.0,41,0.00,,,0.00,Weather View 32 v70,2013-03-14 06:10:00,
2013-03-14 00:15:00,52.8,29.9,30.27,East,93,0.0,0.0,41,0.00,,,0.00,Weather View 32 v70,2013-03-14 06:15:00,
2013-03-14 00:20:00,52.6,29.9,30.27,East,93,0.0,0.0,42,0.00,,,0.00,Weather View 32 v70,2013-03-14 06:20:00,
2013-03-14 00:30:00,51.3,30.0,30.28,East,93,0.0,0.0,44,0.00,,,0.00,Weather View 32 v70,2013-03-14 06:30:00,
2013-03-14 00:35:00,50.2,30.3,30.27,East,93,0.0,0.0,46,0.00,,,0.00,Weather View 32 v70,2013-03-14 06:35:00,
2013-03-14 00:45:00,49.7,29.5,30.27,East,93,0.0,0.0,46,0.00,,,0.00,Weather View 32 v70,2013-03-14 06:45:00,
2013-03-14 00:50:00,49.7,29.5,30.27,East,93,0.0,0.0,46,0.00,,,0.00,Weather View 32 v70,2013-03-14 06:50:00,
2013-03-14 00:55:00,49.3,29.4,30.27,East,93,0.0,0.0,46,0.00,,,0.00,Weather View 32 v70,2013-03-14 06:55:00,
2013-03-14 01:00:00,49.3,29.5,30.27,East,93,0.0,0.0,46,0.00,,,0.00,Weather View 32 v70,2013-03-14 07:00:00,
2013-03-14 01:10:00,49.2,29.7,30.27,East,93,0.0,0.0,47,0.00,,,0.00,Weather View 32 v70,2013-03-14 07:10:00,
2013-03-14 01:15:00,48.7,29.4,30.27,East,93,0.0,0.0,47,0.00,,,0.00,Weather View 32 v70,2013-03-14 07:15:00,
2013-03-14 01:20:00,48.7,29.7,30.27,East,93,0.0,0.0,48,0.00,,,0.00,Weather View 32 v70,2013-03-14 07:20:00,
2013-03-14 01:25:00,48.3,29.6,30.27,East,93,0.0,0.0,48,0.00,,,0.00,Weather View 32 v70,2013-03-14 07:25:00,
2013-03-14 01:30:00,47.4,29.8,30.27,East,93,0.0,0.0,50,0.00,,,0.00,Weather View 32 v70,2013-03-14 07:30:00,
2013-03-14 01:35:00,46.0,30.0,30.27,East,93,0.0,0.0,53,0.00,,,0.00,Weather View 32 v70,2013-03-14 07:35:00,
2013-03-14 01:40:00,44.9,29.7,30.27,East,93,0.0,0.0,55,0.00,,,0.00,Weather View 32 v70,2013-03-14 07:40:00,
2013-03-14 01:50:00,44.1,29.5,30.27,East,93,0.0,0.0,56,0.00,,,0.00,Weather View 32 v70,2013-03-14 07:50:00,
2013-03-14 01:55:00,44.2,29.7,30.27,East,93,0.0,0.0,56,0.00,,,0.00,Weather View 32 v70,2013-03-14 07:55:00,
2013-03-14 02:05:00,44.0,29.8,30.27,East,93,0.0,0.0,57,0.00,,,0.00,Weather View 32 v70,2013-03-14 08:05:00,
2013-03-14 02:10:00,43.8,29.6,30.27,East,93,0.0,0.0,57,0.00,,,0.00,Weather View 32 v70,2013-03-14 08:10:00,
2013-03-14 02:15:00,43.8,29.7,30.27,East,93,0.0,0.0,57,0.00,,,0.00,Weather View 32 v70,2013-03-14 08:15:00,
2013-03-14 02:20:00,43.7,29.7,30.28,East,93,0.0,0.0,58,0.00,,,0.00,Weather View 32 v70,2013-03-14 08:20:00,
2013-03-14 02:30:00,43.5,29.6,30.27,East,93,0.0,0.0,58,0.00,,,0.00,Weather View 32 v70,2013-03-14 08:30:00,
2013-03-14 02:35:00,43.6,29.6,30.27,East,93,0.0,0.0,58,0.00,,,0.00,Weather View 32 v70,2013-03-14 08:35:00,
2013-03-14 02:40:00,44.3,29.6,30.28,East,93,0.0,0.0,56,0.00,,,0.00,Weather View 32 v70,2013-03-14 08:40:00,
2013-03-14 02:45:00,45.9,29.5,30.27,East,93,0.0,0.0,53,0.00,,,0.00,Weather View 32 v70,2013-03-14 08:45:00,
2013-03-14 02:50:00,46.4,29.9,30.27,East,93,0.0,0.0,52,0.00,,,0.00,Weather View 32 v70,2013-03-14 08:50:00,
2013-03-14 02:55:00,46.0,30.1,30.26,East,93,0.0,0.0,54,0.00,,,0.00,Weather View 32 v70,2013-03-14 08:55:00,
2013-03-14 03:05:00,43.6,30.4,30.26,East,93,0.0,0.0,59,0.00,,,0.00,Weather View 32 v70,2013-03-14 09:05:00,
2013-03-14 03:10:00,42.6,30.0,30.26,East,93,0.0,0.0,61,0.00,,,0.00,Weather View 32 v70,2013-03-14 09:10:00,
2013-03-14 03:15:00,42.7,29.8,30.26,East,93,0.0,0.0,60,0.00,,,0.00,Weather View 32 v70,2013-03-14 09:15:00,
2013-03-14 03:25:00,43.7,30.0,30.26,East,93,0.0,0.0,58,0.00,,,0.00,Weather View 32 v70,2013-03-14 09:25:00,
2013-03-14 03:30:00,44.0,29.9,30.26,East,93,0.0,0.0,58,0.00,,,0.00,Weather View 32 v70,2013-03-14 09:30:00,
2013-03-14 03:35:00,44.4,30.0,30.26,East,93,0.0,0.0,57,0.00,,,0.00,Weather View 32 v70,2013-03-14 09:35:00,
2013-03-14 03:40:00,44.1,30.8,30.26,East,93,0.0,0.0,59,0.00,,,0.00,Weather View 32 v70,2013-03-14 09:40:00,
2013-03-14 03:45:00,42.8,30.7,30.25,East,93,0.0,0.0,62,0.00,,,0.00,Weather View 32 v70,2013-03-14 09:45:00,
2013-03-14 03:50:00,41.8,30.0,30.25,East,93,0.0,0.0,63,0.00,,,0.00,Weather View 32 v70,2013-03-14 09:50:00,
2013-03-14 04:00:00,41.1,30.4,30.25,East,93,0.0,0.0,65,0.00,,,0.00,Weather View 32 v70,2013-03-14 10:00:00,
2013-03-14 04:10:00,41.0,29.6,30.25,East,93,0.0,0.0,64,0.00,,,0.00,Weather View 32 v70,2013-03-14 10:10:00,
2013-03-14 04:15:00,41.7,29.3,30.25,East,93,0.0,0.0,61,0.00,,,0.00,Weather View 32 v70,2013-03-14 10:15:00,
2013-03-14 04:25:00,43.6,29.1,30.25,East,93,0.0,0.0,56,0.00,,,0.00,Weather View 32 v70,2013-03-14 10:25:00,
2013-03-14 04:30:00,44.7,29.0,30.25,East,93,0.0,0.0,54,0.00,,,0.00,Weather View 32 v70,2013-03-14 10:30:00,
2013-03-14 04:35:00,45.8,28.5,30.25,East,93,0.0,0.0,51,0.00,,,0.00,Weather View 32 v70,2013-03-14 10:35:00,
2013-03-14 04:40:00,48.2,28.2,30.25,East,93,0.0,0.0,46,0.00,,,0.00,Weather View 32 v70,2013-03-14 10:40:00,
2013-03-14 04:45:00,49.3,28.4,30.25,East,93,0.0,0.0,44,0.00,,,0.00,Weather View 32 v70,2013-03-14 10:45:00,
2013-03-14 04:55:00,50.8,27.9,30.26,East,93,0.0,0.0,41,0.00,,,0.00,Weather View 32 v70,2013-03-14 10:55:00,
2013-03-14 05:00:00,51.7,28.1,30.26,East,93,0.0,0.0,40,0.00,,,0.00,Weather View 32 v70,2013-03-14 11:00:00,
2013-03-14 05:05:00,52.2,28.0,30.26,East,93,0.0,0.0,39,0.00,,,0.00,Weather View 32 v70,2013-03-14 11:05:00,
2013-03-14 05:15:00,52.4,27.7,30.26,East,93,0.0,0.0,38,0.00,,,0.00,Weather View 32 v70,2013-03-14 11:15:00,
2013-03-14 05:20:00,51.8,29.2,30.26,East,93,0.0,0.0,42,0.00,,,0.00,Weather View 32 v70,2013-03-14 11:20:00,
2013-03-14 05:30:00,47.3,29.1,30.27,East,93,0.0,0.0,49,0.00,,,0.00,Weather View 32 v70,2013-03-14 11:30:00,
2013-03-14 05:35:00,48.3,27.7,30.27,East,93,0.0,0.0,45,0.00,,,0.00,Weather View 32 v70,2013-03-14 11:35:00,
2013-03-14 05:40:00,50.5,27.6,30.27,East,93,0.0,0.0,41,0.00,,,0.00,Weather View 32 v70,2013-03-14 11:40:00,
2013-03-14 05:50:00,52.8,28.2,30.28,East,93,0.0,0.0,39,0.00,,,0.00,Weather View 32 v70,2013-03-14 11:50:00,
2013-03-14 05:55:00,53.0,28.4,30.28,East,93,0.0,0.0,39,0.00,,,0.00,Weather View 32 v70,2013-03-14 11:55:00,
2013-03-14 06:00:00,53.0,28.5,30.28,East,93,0.0,0.0,39,0.00,,,0.00,Weather View 32 v70,2013-03-14 12:00:00,
2013-03-14 06:05:00,53.0,28.5,30.28,East,93,0.0,0.0,39,0.00,,,0.00,Weather View 32 v70,2013-03-14 12:05:00,
2013-03-14 06:15:00,50.1,29.9,30.29,East,93,0.0,0.0,46,0.00,,,0.00,Weather View 32 v70,2013-03-14 12:15:00,
2013-03-14 06:20:00,48.5,29.4,30.29,East,93,0.0,0.0,47,0.00,,,0.00,Weather View 32 v70,2013-03-14 12:20:00,
2013-03-14 06:30:00,45.7,28.7,30.29,East,93,0.0,0.0,51,0.00,,,0.00,Weather View 32 v70,2013-03-14 12:30:00,
2013-03-14 06:35:00,47.7,27.8,30.29,East,93,0.0,0.0,46,0.00,,,0.00,Weather View 32 v70,2013-03-14 12:35:00,
2013-03-14 06:40:00,49.5,28.5,30.30,East,93,0.0,0.0,44,0.00,,,0.00,Weather View 32 v70,2013-03-14 12:40:00,
2013-03-14 06:45:00,49.5,29.1,30.30,East,93,0.0,0.0,45,0.00,,,0.00,Weather View 32 v70,2013-03-14 12:45:00,
2013-03-14 06:55:00,48.2,29.5,30.29,East,93,0.0,0.0,48,0.00,,,0.00,Weather View 32 v70,2013-03-14 12:55:00,
2013-03-14 07:00:00,46.9,29.3,30.30,East,93,0.0,0.0,50,0.00,,,0.00,Weather View 32 v70,2013-03-14 13:00:00,
2013-03-14 07:10:00,44.6,29.1,30.30,East,93,0.0,0.0,54,0.00,,,0.00,Weather View 32 v70,2013-03-14 13:10:00,
2013-03-14 07:15:00,43.7,28.6,30.30,East,93,0.0,0.0,55,0.00,,,0.00,Weather View 32 v70,2013-03-14 13:15:00,
2013-03-14 07:20:00,43.3,28.6,30.30,East,93,0.0,0.0,56,0.00,,,0.00,Weather View 32 v70,2013-03-14 13:20:00,
2013-03-14 07:25:00,43.2,28.2,30.30,East,93,0.0,0.0,55,0.00,,,0.00,Weather View 32 v70,2013-03-14 13:25:00,
2013-03-14 07:35:00,43.9,28.4,30.31,East,93,0.0,0.0,54,0.00,,,0.00,Weather View 32 v70,2013-03-14 13:35:00,
2013-03-14 07:40:00,44.4,28.7,30.31,East,93,0.0,0.0,54,0.00,,,0.00,Weather View 32 v70,2013-03-14 13:40:00,
2013-03-14 07:45:00,44.9,28.9,30.31,East,93,0.0,0.0,53,0.00,,,0.00,Weather View 32 v70,2013-03-14 13:45:00,
2013-03-14 07:50:00,44.8,29.5,30.31,East,93,0.0,0.0,55,0.00,,,0.00,Weather View 32 v70,2013-03-14 13:50:00,
2013-03-14 07:55:00,44.6,29.4,30.31,East,93,0.0,0.0,55,0.00,,,0.00,Weather View 32 v70,2013-03-14 13:55:00,
2013-03-14 08:02:00,43.7,29.4,30.32,East,93,0.0,0.0,57,0.00,,,0.00,Weather View 32 v70,2013-03-14 14:02:00,
2013-03-14 08:10:00,42.9,29.5,30.32,East,93,0.0,0.0,59,0.00,,,0.00,Weather View 32 v70,2013-03-14 14:10:00,
2013-03-14 08:15:00,43.1,29.4,30.32,East,93,0.0,0.0,58,0.00,,,0.00,Weather View 32 v70,2013-03-14 14:15:00,
2013-03-14 08:25:00,43.9,30.1,30.32,East,93,0.0,0.0,58,0.00,,,0.00,Weather View 32 v70,2013-03-14 14:25:00,
2013-03-14 08:30:00,45.0,30.5,30.32,East,93,0.0,0.0,57,0.00,,,0.00,Weather View 32 v70,2013-03-14 14:30:00,
2013-03-14 08:35:00,46.3,30.6,30.32,East,93,0.0,0.0,54,0.00,,,0.00,Weather View 32 v70,2013-03-14 14:35:00,
2013-03-14 08:45:00,48.7,30.9,30.34,East,93,0.0,0.0,50,0.00,,,0.00,Weather View 32 v70,2013-03-14 14:45:00,
2013-03-14 08:50:00,50.1,31.1,30.33,East,93,0.0,0.0,48,0.00,,,0.00,Weather View 32 v70,2013-03-14 14:50:00,
2013-03-14 08:55:00,51.3,31.3,30.33,East,93,0.0,0.0,46,0.00,,,0.00,Weather View 32 v70,2013-03-14 14:55:00,
2013-03-14 09:05:00,52.4,32.5,30.34,East,93,0.0,0.0,47,0.00,,,0.00,Weather View 32 v70,2013-03-14 15:05:00,
2013-03-14 09:10:00,52.7,32.4,30.34,East,93,0.0,0.0,46,0.00,,,0.00,Weather View 32 v70,2013-03-14 15:10:00,
2013-03-14 09:15:00,52.8,32.3,30.33,East,93,0.0,0.0,46,0.00,,,0.00,Weather View 32 v70,2013-03-14 15:15:00,
2013-03-14 09:25:00,53.2,32.8,30.33,East,93,0.0,0.0,46,0.00,,,0.00,Weather View 32 v70,2013-03-14 15:25:00,
2013-03-14 09:30:00,53.6,32.8,30.33,East,93,0.0,0.0,45,0.00,,,0.00,Weather View 32 v70,2013-03-14 15:30:00,
2013-03-14 09:40:00,53.8,32.8,30.33,East,93,0.0,0.0,45,0.00,,,0.00,Weather View 32 v70,2013-03-14 15:40:00,
2013-03-14 09:45:00,53.8,33.2,30.33,East,93,0.0,0.0,46,0.00,,,0.00,Weather View 32 v70,2013-03-14 15:45:00,
2013-03-14 09:50:00,53.9,33.2,30.32,East,93,0.0,0.0,45,0.00,,,0.00,Weather View 32 v70,2013-03-14 15:50:00,
2013-03-14 10:00:00,54.1,33.0,30.32,East,93,0.0,0.0,45,0.00,,,0.00,Weather View 32 v70,2013-03-14 16:00:00,
2013-03-14 10:10:00,55.0,32.9,30.32,East,93,0.0,0.0,43,0.00,,,0.00,Weather View 32 v70,2013-03-14 16:10:00,
2013-03-14 10:20:00,56.7,32.8,30.32,East,93,0.0,0.0,40,0.00,,,0.00,Weather View 32 v70,2013-03-14 16:20:00,
2013-03-14 10:25:00,57.0,32.4,30.32,East,93,0.0,0.0,39,0.00,,,0.00,Weather View 32 v70,2013-03-14 16:25:00,
2013-03-14 10:30:00,57.5,32.9,30.32,East,93,0.0,0.0,39,0.00,,,0.00,Weather View 32 v70,2013-03-14 16:30:00,
2013-03-14 10:40:00,58.7,33.1,30.32,East,93,0.0,0.0,38,0.00,,,0.00,Weather View 32 v70,2013-03-14 16:40:00,
2013-03-14 10:45:00,59.0,32.8,30.32,East,93,0.0,0.0,37,0.00,,,0.00,Weather View 32 v70,2013-03-14 16:45:00,
2013-03-14 10:50:00,59.6,32.8,30.31,East,93,0.0,0.0,36,0.00,,,0.00,Weather View 32 v70,2013-03-14 16:50:00,
2013-03-14 11:00:00,60.5,31.6,30.31,East,93,0.0,0.0,34,0.00,,,0.00,Weather View 32 v70,2013-03-14 17:00:00,
2013-03-14 11:05:00,61.0,31.7,30.31,East,93,0.0,0.0,33,0.00,,,0.00,Weather View 32 v70,2013-03-14 17:05:00,
2013-03-14 11:10:00,61.3,31.0,30.31,East,93,0.0,0.0,32,0.00,,,0.00,Weather View 32 v70,2013-03-14 17:10:00,
2013-03-14 11:15:00,61.5,31.1,30.31,East,93,0.0,0.0,32,0.00,,,0.00,Weather View 32 v70,2013-03-14 17:15:00,
2013-03-14 11:20:00,61.5,31.8,30.31,East,93,0.0,0.0,33,0.00,,,0.00,Weather View 32 v70,2013-03-14 17:20:00,
2013-03-14 11:30:00,62.3,29.8,30.30,East,93,0.0,0.0,29,0.00,,,0.00,Weather View 32 v70,2013-03-14 17:30:00,
2013-03-14 11:35:00,62.5,30.8,30.30,East,93,0.0,0.0,30,0.00,,,0.00,Weather View 32 v70,2013-03-14 17:35:00,
2013-03-14 11:40:00,62.6,30.3,30.30,East,93,0.0,0.0,30,0.00,,,0.00,Weather View 32 v70,2013-03-14 17:40:00,
2013-03-14 11:50:00,62.9,29.8,30.29,East,93,0.0,0.0,29,0.00,,,0.00,Weather View 32 v70,2013-03-14 17:50:00,
2013-03-14 11:55:00,63.3,30.2,30.29,East,93,0.0,0.0,29,0.00,,,0.00,Weather View 32 v70,2013-03-14 17:55:00,
2013-03-14 12:00:00,63.6,30.2,30.29,East,93,0.0,0.0,28,0.00,,,0.00,Weather View 32 v70,2013-03-14 18:00:00,
2013-03-14 12:05:00,63.2,30.0,30.29,East,93,0.0,0.0,29,0.00,,,0.00,Weather View 32 v70,2013-03-14 18:05:00,
2013-03-14 12:15:00,63.6,29.8,30.29,East,93,0.0,0.0,28,0.00,,,0.00,Weather View 32 v70,2013-03-14 18:15:00,
2013-03-14 12:20:00,63.5,29.0,30.29,East,93,0.0,0.0,27,0.00,,,0.00,Weather View 32 v70,2013-03-14 18:20:00,
2013-03-14 12:30:00,63.9,29.1,30.29,East,93,0.0,0.0,27,0.00,,,0.00,Weather View 32 v70,2013-03-14 18:30:00,
2013-03-14 12:35:00,64.2,29.7,30.28,East,93,0.0,0.0,27,0.00,,,0.00,Weather View 32 v70,2013-03-14 18:35:00,
2013-03-14 12:45:00,64.6,29.6,30.28,East,93,0.0,0.0,27,0.00,,,0.00,Weather View 32 v70,2013-03-14 18:45:00,
2013-03-14 12:55:00,66.0,29.4,30.27,East,93,0.0,0.0,25,0.00,,,0.00,Weather View 32 v70,2013-03-14 18:55:00,
2013-03-14 13:00:00,65.9,28.8,30.27,East,93,0.0,0.0,25,0.00,,,0.00,Weather View 32 v70,2013-03-14 19:00:00,
2013-03-14 13:05:00,65.5,28.8,30.26,East,93,0.0,0.0,25,0.00,,,0.00,Weather View 32 v70,2013-03-14 19:05:00,
2013-03-14 13:15:00,66.2,29.0,30.26,East,93,0.0,0.0,25,0.00,,,0.00,Weather View 32 v70,2013-03-14 19:15:00,
2013-03-14 13:20:00,66.4,28.6,30.25,East,93,0.0,0.0,24,0.00,,,0.00,Weather View 32 v70,2013-03-14 19:20:00,
2013-03-14 13:30:00,66.4,29.3,30.24,East,93,0.0,0.0,25,0.00,,,0.00,Weather View 32 v70,2013-03-14 19:30:00,
2013-03-14 13:35:00,67.1,29.4,30.24,East,93,0.0,0.0,24,0.00,,,0.00,Weather View 32 v70,2013-03-14 19:35:00,
2013-03-14 13:40:00,67.7,28.8,30.24,East,93,0.0,0.0,23,0.00,,,0.00,Weather View 32 v70,2013-03-14 19:40:00,
2013-03-14 13:45:00,68.2,28.3,30.24,East,93,0.0,0.0,22,0.00,,,0.00,Weather View 32 v70,2013-03-14 19:45:00,
2013-03-14 13:55:00,67.7,28.7,30.23,East,93,0.0,0.0,23,0.00,,,0.00,Weather View 32 v70,2013-03-14 19:55:00,
2013-03-14 14:00:00,67.8,28.8,30.23,East,93,0.0,0.0,23,0.00,,,0.00,Weather View 32 v70,2013-03-14 20:00:00,
2013-03-14 14:06:00,68.1,27.8,30.23,East,93,0.0,0.0,22,0.00,,,0.00,Weather View 32 v70,2013-03-14 20:06:00,
2013-03-14 14:15:00,68.5,27.3,30.22,East,93,0.0,0.0,21,0.00,,,0.00,Weather View 32 v70,2013-03-14 20:15:00,
2013-03-14 14:20:00,68.0,27.3,30.22,East,93,0.0,0.0,22,0.00,,,0.00,Weather View 32 v70,2013-03-14 20:20:00,
2013-03-14 14:25:00,68.0,27.5,30.22,East,93,0.0,0.0,22,0.00,,,0.00,Weather View 32 v70,2013-03-14 20:25:00,
2013-03-14 14:35:00,68.3,27.1,30.21,East,93,0.0,0.0,21,0.00,,,0.00,Weather View 32 v70,2013-03-14 20:35:00,
2013-03-14 14:40:00,68.4,27.2,30.21,East,93,0.0,0.0,21,0.00,,,0.00,Weather View 32 v70,2013-03-14 20:40:00,
2013-03-14 14:45:00,68.8,27.0,30.21,East,93,0.0,0.0,21,0.00,,,0.00,Weather View 32 v70,2013-03-14 20:45:00,
2013-03-14 14:55:00,68.6,26.8,30.21,East,93,0.0,0.0,21,0.00,,,0.00,Weather View 32 v70,2013-03-14 20:55:00,
2013-03-14 15:00:00,68.5,27.2,30.21,East,93,0.0,0.0,21,0.00,,,0.00,Weather View 32 v70,2013-03-14 21:00:00,
2013-03-14 15:05:00,69.0,26.4,30.20,East,93,0.0,0.0,20,0.00,,,0.00,Weather View 32 v70,2013-03-14 21:05:00,
2013-03-14 15:15:00,68.7,25.4,30.20,East,93,0.0,0.0,20,0.00,,,0.00,Weather View 32 v70,2013-03-14 21:15:00,
2013-03-14 15:20:00,68.4,25.6,30.19,East,93,0.0,0.0,20,0.00,,,0.00,Weather View 32 v70,2013-03-14 21:20:00,
2013-03-14 15:30:00,68.4,26.0,30.19,East,93,0.0,0.0,20,0.00,,,0.00,Weather View 32 v70,2013-03-14 21:30:00,
2013-03-14 15:35:00,68.8,25.1,30.20,East,93,0.0,0.0,19,0.00,,,0.00,Weather View 32 v70,2013-03-14 21:35:00,
2013-03-14 15:45:00,69.4,24.7,30.20,East,93,0.0,0.0,19,0.00,,,0.00,Weather View 32 v70,2013-03-14 21:45:00,
2013-03-14 15:50:00,69.1,25.0,30.19,East,93,0.0,0.0,19,0.00,,,0.00,Weather View 32 v70,2013-03-14 21:50:00,
2013-03-14 15:55:00,69.2,25.2,30.19,East,93,0.0,0.0,19,0.00,,,0.00,Weather View 32 v70,2013-03-14 21:55:00,
2013-03-14 16:00:00,69.6,25.0,30.19,East,93,0.0,0.0,19,0.00,,,0.00,Weather View 32 v70,2013-03-14 22:00:00,
2013-03-14 16:07:00,70.2,25.1,30.19,East,93,0.0,0.0,18,0.00,,,0.00,Weather View 32 v70,2013-03-14 22:07:00,
2013-03-14 16:15:00,70.0,24.2,30.19,East,93,0.0,0.0,18,0.00,,,0.00,Weather View 32 v70,2013-03-14 22:15:00,
2013-03-14 16:20:00,69.5,22.8,30.19,East,93,0.0,0.0,17,0.00,,,0.00,Weather View 32 v70,2013-03-14 22:20:00,
2013-03-14 16:30:00,69.1,19.1,30.19,East,93,0.0,0.0,15,0.00,,,0.00,Weather View 32 v70,2013-03-14 22:30:00,
2013-03-14 16:35:00,68.7,17.8,30.18,East,93,0.0,0.0,14,0.00,,,0.00,Weather View 32 v70,2013-03-14 22:35:00,
2013-03-14 16:45:00,68.4,19.0,30.18,East,93,0.0,0.0,15,0.00,,,0.00,Weather View 32 v70,2013-03-14 22:45:00,
2013-03-14 16:50:00,68.5,18.1,30.18,East,93,0.0,0.0,15,0.00,,,0.00,Weather View 32 v70,2013-03-14 22:50:00,
2013-03-14 16:55:00,68.5,18.3,30.19,East,93,0.0,0.0,15,0.00,,,0.00,Weather View 32 v70,2013-03-14 22:55:00,
2013-03-14 17:05:00,68.2,17.4,30.19,East,93,0.0,0.0,14,0.00,,,0.00,Weather View 32 v70,2013-03-14 23:05:00,
2013-03-14 17:10:00,68.0,19.3,30.19,East,93,0.0,0.0,16,0.00,,,0.00,Weather View 32 v70,2013-03-14 23:10:00,
2013-03-14 17:20:00,67.9,19.8,30.18,East,93,0.0,0.0,16,0.00,,,0.00,Weather View 32 v70,2013-03-14 23:20:00,
2013-03-14 17:25:00,67.7,18.9,30.19,East,93,0.0,0.0,15,0.00,,,0.00,Weather View 32 v70,2013-03-14 23:25:00,
2013-03-14 17:30:00,67.7,18.4,30.19,East,93,0.0,0.0,15,0.00,,,0.00,Weather View 32 v70,2013-03-14 23:30:00,
2013-03-14 17:40:00,67.4,19.1,30.19,East,93,0.0,0.0,16,0.00,,,0.00,Weather View 32 v70,2013-03-14 23:40:00,
2013-03-14 17:45:00,67.3,19.2,30.19,East,93,0.0,0.0,16,0.00,,,0.00,Weather View 32 v70,2013-03-14 23:45:00,
2013-03-14 17:50:00,67.1,19.5,30.19,East,93,0.0,0.0,16,0.00,,,0.00,Weather View 32 v70,2013-03-14 23:50:00,
2013-03-14 17:55:00,66.9,19.9,30.19,East,93,0.0,0.0,17,0.00,,,0.00,Weather View 32 v70,2013-03-14 23:55:00,
2013-03-14 18:05:00,66.2,20.8,30.19,East,93,0.0,0.0,18,0.00,,,0.00,Weather View 32 v70,2013-03-15 00:05:00,
2013-03-14 18:10:00,65.9,21.2,30.19,East,93,0.0,0.0,18,0.00,,,0.00,Weather View 32 v70,2013-03-15 00:10:00,
2013-03-14 18:15:00,65.7,21.6,30.19,East,93,0.0,0.0,19,0.00,,,0.00,Weather View 32 v70,2013-03-15 00:15:00,
2013-03-14 18:20:00,65.4,22.1,30.19,East,93,0.0,0.0,19,0.00,,,0.00,Weather View 32 v70,2013-03-15 00:20:00,
2013-03-14 18:30:00,65.0,21.9,30.19,East,93,0.0,0.0,19,0.00,,,0.00,Weather View 32 v70,2013-03-15 00:30:00,
2013-03-14 18:40:00,64.5,22.1,30.19,East,93,0.0,0.0,20,0.00,,,0.00,Weather View 32 v70,2013-03-15 00:40:00,
2013-03-14 18:45:00,64.2,22.3,30.19,East,93,0.0,0.0,20,0.00,,,0.00,Weather View 32 v70,2013-03-15 00:45:00,
2013-03-14 18:50:00,63.9,22.5,30.19,East,93,0.0,0.0,21,0.00,,,0.00,Weather View 32 v70,2013-03-15 00:50:00,
2013-03-14 19:00:00,63.5,22.8,30.19,East,93,0.0,0.0,21,0.00,,,0.00,Weather View 32 v70,2013-03-15 01:00:00,
2013-03-14 19:05:00,63.2,22.9,30.20,East,93,0.0,0.0,21,0.00,,,0.00,Weather View 32 v70,2013-03-15 01:05:00,
2013-03-14 19:10:00,63.0,22.9,30.19,East,93,0.0,0.0,22,0.00,,,0.00,Weather View 32 v70,2013-03-15 01:10:00,
2013-03-14 19:20:00,62.8,23.2,30.19,East,93,0.0,0.0,22,0.00,,,0.00,Weather View 32 v70,2013-03-15 01:20:00,
2013-03-14 19:25:00,62.6,23.6,30.19,East,93,0.0,0.0,22,0.00,,,0.00,Weather View 32 v70,2013-03-15 01:25:00,
2013-03-14 19:30:00,62.3,23.8,30.20,East,93,0.0,0.0,23,0.00,,,0.00,Weather View 32 v70,2013-03-15 01:30:00,
2013-03-14 19:40:00,61.8,24.2,30.20,East,93,0.0,0.0,24,0.00,,,0.00,Weather View 32 v70,2013-03-15 01:40:00,
2013-03-14 19:50:00,61.3,25.1,30.20,East,93,0.0,0.0,25,0.00,,,0.00,Weather View 32 v70,2013-03-15 01:50:00,
2013-03-14 19:55:00,61.1,25.1,30.20,East,93,0.0,0.0,25,0.00,,,0.00,Weather View 32 v70,2013-03-15 01:55:00,
2013-03-14 20:00:00,60.9,25.1,30.20,East,93,0.0,0.0,25,0.00,,,0.00,Weather View 32 v70,2013-03-15 02:00:00,
2013-03-14 20:05:00,61.0,24.9,30.20,East,93,0.0,0.0,25,0.00,,,0.00,Weather View 32 v70,2013-03-15 02:05:00,
2013-03-14 20:15:00,61.0,25.4,30.20,East,93,0.0,0.0,26,0.00,,,0.00,Weather View 32 v70,2013-03-15 02:15:00,
2013-03-14 20:20:00,60.5,25.9,30.20,East,93,0.0,0.0,27,0.00,,,0.00,Weather View 32 v70,2013-03-15 02:20:00,
2013-03-14 20:30:00,59.9,25.9,30.20,East,93,0.0,0.0,27,0.00,,,0.00,Weather View 32 v70,2013-03-15 02:30:00,
2013-03-14 20:35:00,59.5,26.3,30.20,East,93,0.0,0.0,28,0.00,,,0.00,Weather View 32 v70,2013-03-15 02:35:00,
2013-03-14 20:40:00,59.3,26.6,30.20,East,93,0.0,0.0,29,0.00,,,0.00,Weather View 32 v70,2013-03-15 02:40:00,
2013-03-14 20:50:00,59.0,26.6,30.20,East,93,0.0,0.0,29,0.00,,,0.00,Weather View 32 v70,2013-03-15 02:50:00,
2013-03-14 20:55:00,58.9,26.7,30.20,East,93,0.0,0.0,29,0.00,,,0.00,Weather View 32 v70,2013-03-15 02:55:00,
2013-03-14 21:00:00,58.8,26.7,30.21,East,93,0.0,0.0,29,0.00,,,0.00,Weather View 32 v70,2013-03-15 03:00:00,
2013-03-14 21:05:00,58.8,26.8,30.21,East,93,0.0,0.0,29,0.00,,,0.00,Weather View 32 v70,2013-03-15 03:05:00,
2013-03-14 21:10:00,58.7,26.8,30.21,East,93,0.0,0.0,29,0.00,,,0.00,Weather View 32 v70,2013-03-15 03:10:00,
2013-03-14 21:20:00,59.0,26.2,30.21,East,93,0.0,0.0,28,0.00,,,0.00,Weather View 32 v70,2013-03-15 03:20:00,
2013-03-14 21:25:00,59.3,26.1,30.21,East,93,0.0,0.0,28,0.00,,,0.00,Weather View 32 v70,2013-03-15 03:25:00,
2013-03-14 21:30:00,59.2,26.5,30.21,East,93,0.0,0.0,29,0.00,,,0.00,Weather View 32 v70,2013-03-15 03:30:00,
2013-03-14 21:40:00,58.4,27.3,30.21,East,93,0.0,0.0,30,0.00,,,0.00,Weather View 32 v70,2013-03-15 03:40:00,
2013-03-14 21:45:00,57.7,27.1,30.21,East,93,0.0,0.0,31,0.00,,,0.00,Weather View 32 v70,2013-03-15 03:45:00,
2013-03-14 21:55:00,56.3,28.5,30.21,East,93,0.0,0.0,34,0.00,,,0.00,Weather View 32 v70,2013-03-15 03:55:00,
2013-03-14 22:00:00,56.0,27.2,30.21,East,93,0.0,0.0,33,0.00,,,0.00,Weather View 32 v70,2013-03-15 04:00:00,
2013-03-14 22:05:00,55.5,27.7,30.21,East,93,0.0,0.0,34,0.00,,,0.00,Weather View 32 v70,2013-03-15 04:05:00,
2013-03-14 22:10:00,54.7,27.9,30.21,East,93,0.0,0.0,36,0.00,,,0.00,Weather View 32 v70,2013-03-15 04:10:00,
2013-03-14 22:15:00,53.6,28.1,30.21,East,93,0.0,0.0,37,0.00,,,0.00,Weather View 32 v70,2013-03-15 04:15:00,
2013-03-14 22:20:00,52.6,28.4,30.21,East,93,0.0,0.0,39,0.00,,,0.00,Weather View 32 v70,2013-03-15 04:20:00,
2013-03-14 22:30:00,51.5,27.9,30.21,East,93,0.0,0.0,40,0.00,,,0.00,Weather View 32 v70,2013-03-15 04:30:00,
2013-03-14 22:35:00,51.2,28.0,30.20,East,93,0.0,0.0,41,0.00,,,0.00,Weather View 32 v70,2013-03-15 04:35:00,
2013-03-14 22:40:00,51.0,28.1,30.20,East,93,0.0,0.0,41,0.00,,,0.00,Weather View 32 v70,2013-03-15 04:40:00,
2013-03-14 22:50:00,50.8,27.5,30.19,East,93,0.0,0.0,40,0.00,,,0.00,Weather View 32 v70,2013-03-15 04:50:00,
2013-03-14 22:55:00,50.9,27.8,30.20,East,93,0.0,0.0,41,0.00,,,0.00,Weather View 32 v70,2013-03-15 04:55:00,
2013-03-14 23:00:00,50.7,27.6,30.20,East,93,0.0,0.0,41,0.00,,,0.00,Weather View 32 v70,2013-03-15 05:00:00,
2013-03-14 23:05:00,50.9,27.3,30.19,East,93,0.0,0.0,40,0.00,,,0.00,Weather View 32 v70,2013-03-15 05:05:00,
2013-03-14 23:11:00,51.2,27.1,30.19,East,93,0.0,0.0,39,0.00,,,0.00,Weather View 32 v70,2013-03-15 05:11:00,
2013-03-14 23:20:00,50.6,27.4,30.18,East,93,0.0,0.0,41,0.00,,,0.00,Weather View 32 v70,2013-03-15 05:20:00,
2013-03-14 23:25:00,50.3,27.7,30.18,East,93,0.0,0.0,42,0.00,,,0.00,Weather View 32 v70,2013-03-15 05:25:00,
2013-03-14 23:35:00,49.9,27.5,30.18,East,93,0.0,0.0,42,0.00,,,0.00,Weather View 32 v70,2013-03-15 05:35:00,
2013-03-14 23:40:00,49.8,27.5,30.18,East,93,0.0,0.0,42,0.00,,,0.00,Weather View 32 v70,2013-03-15 05:40:00,
2013-03-14 23:45:00,49.5,27.8,30.18,East,93,0.0,0.0,43,0.00,,,0.00,Weather View 32 v70,2013-03-15 05:45:00,
2013-03-14 23:50:00,49.2,27.7,30.18,East,93,0.0,0.0,43,0.00,,,0.00,Weather View 32 v70,2013-03-15 05:50:00,